Location: Kitchener
(43.4500°N, 80.5000°W)
Time: 00:52:37
(UTC-04:00)

Daily predictions for brighter satellites

Satellite Brightness Start Highest point End
(mag) Time Altitude Azimuth Time Altitude Azimuth Time Altitude Azimuth
Okean 1 3.9 00:00:27 10° N 00:03:54 49° NE 00:03:54 49° NE
Sich 1 Rocket 4.0 00:05:59 48° WSW 00:06:44 55° W 00:11:05 10° N
Cosmos 494 Rocket 4.4 00:02:51 10° NNW 00:07:54 50° WSW 00:08:45 45° SW
Meteor 1-18 Rocket 4.2 00:02:12 10° N 00:07:56 89° E 00:09:08 58° S
Cosmos 1782 Rocket 3.5 00:09:07 81° WSW 00:09:12 82° W 00:13:38 10° N
Lacrosse 5 rocket 3.7 00:10:56 10° WNW 00:13:46 21° NNW 00:16:41 10° NNE
CZ-4 R/B 4.2 00:09:39 10° N 00:14:13 56° WNW 00:15:13 46° WSW
Spot 4 4.2 00:14:20 51° SW 00:14:54 54° W 00:19:38 10° NNW
Cosmos 1943 Rocket 4.3 00:11:11 10° WSW 00:15:41 24° NW 00:20:11 10° N
Cosmos 405 Rocket 3.4 00:14:55 10° NNW 00:17:52 50° NW 00:17:52 50° NW
Cosmos 1633 3.8 00:25:24 37° NNE 00:25:24 37° NNE 00:27:43 10° NNE
APEX 4.0 00:19:48 10° NNW 00:24:04 49° NE 00:24:04 49° NE
BREEZE-M DEB 4.5 00:19:30 10° WNW 00:25:58 37° N 00:27:27 23° NE
CZ-4B R/B 3.8 00:21:06 10° N 00:26:01 59° WNW 00:26:59 49° WSW
Cosmos 2026 Rocket 4.3 00:25:32 39° SW 00:27:43 59° WNW 00:33:53 10° N
ALOS 2 3.1 00:28:20 50° ENE 00:28:20 50° ENE 00:32:23 10° N
Cosmos 1975 Rocket 3.6 00:26:22 10° NNW 00:30:38 50° W 00:30:38 50° W
Cosmos 2151 Rocket 3.9 00:40:41 62° NE 00:40:41 62° NE 00:44:32 10° NNE
S3M 4.0 00:39:08 10° NNW 00:45:12 70° W 00:46:18 58° SSW
Cosmos 1441 Rocket 4.4 00:43:21 10° NNW 00:46:10 38° NW 00:46:10 38° NW
Cosmos 2297 Rocket 2.3 00:41:47 10° NNW 00:47:26 64° ENE 00:48:16 56° ESE
Cosmos 883 Rocket 4.5 00:41:48 10° N 00:47:58 67° E 00:48:56 58° SE
Cosmos 1697 Rocket 3.9 00:49:13 28° E 00:49:13 28° E 00:53:18 10° NE
Cosmos 1536 Rocket 3.8 00:49:55 10° N 00:53:43 66° N 00:53:43 66° N
H-2A R/B 4.4 00:57:24 12° W 00:57:24 12° W 00:58:59 10° WNW
ATLAS 5 CENTAUR R/B 4.4 00:55:57 10° W 00:58:57 14° WSW 00:59:24 14° WSW
GP-B 3.7 00:54:49 10° N 00:58:32 50° NE 00:58:32 50° NE
Cosmos 1300 Rocket 4.1 01:02:18 53° NE 01:02:18 53° NE 01:05:49 10° NNE
ATLAS CENTAUR R/B 2.7 01:05:54 33° NW 01:06:00 33° NW 01:09:31 10° NNE
Cosmos 1371 Rocket 3.9 01:07:59 77° E 01:07:59 77° E 01:13:03 10° NNE
Cosmos 2082 3.5 01:04:33 10° NNW 01:10:19 84° WSW 01:10:39 79° S
Cosmos 2278 3.5 01:12:16 80° S 01:12:36 86° ESE 01:18:19 10° NNE
Meteor 1-13 Rocket 4.3 01:08:11 10° NNW 01:13:51 63° W 01:14:20 60° WSW
ISS -1.0 01:11:35 10° NW 01:14:01 19° N 01:16:27 10° NE
Meteor 1-19 Rocket 4.4 01:08:40 10° NNW 01:14:25 63° W 01:14:56 60° WSW
Cosmos 1190 Rocket 4.0 01:10:03 10° NNW 01:15:15 68° ENE 01:15:26 68° E
CZ-2C R/B 4.0 01:25:43 33° W 01:25:43 33° W 01:30:04 10° NNW
Mayak -0.7 01:23:23 10° N 01:26:48 56° N 01:26:48 56° N
Cosmos 1536 3.8 01:30:56 46° NNW 01:30:56 46° NNW 01:34:02 10° N
Cosmos 1624 Rocket 3.9 01:32:23 78° W 01:32:32 79° WNW 01:37:55 10° NNE
Cosmos 2227 Rocket 2.8 01:31:04 10° NW 01:36:06 43° W 01:36:06 43° W
Meteor 1-11 Rocket 4.2 01:36:32 47° WSW 01:37:32 52° WNW 01:43:23 10° N
Cosmos 407 Rocket 3.4 01:33:35 10° NNW 01:38:54 84° W 01:38:54 84° W
USA 229 DEB 3.6 01:38:23 63° S 01:39:30 76° ESE 01:46:27 10° NE
USA 229 3.6 01:38:31 63° S 01:39:35 75° ESE 01:46:32 10° NE
Okean 1 Rocket 3.6 01:41:29 56° NNW 01:41:29 56° NNW 01:45:07 10° N
CZ-2C R/B 3.8 01:36:25 10° N 01:40:57 32° WNW 01:42:03 29° W
Cosmos 2315 Rocket 4.0 01:35:24 10° NNW 01:41:33 65° W 01:42:16 60° SW
Okean 1-7 Rocket 3.9 01:37:43 10° N 01:41:23 62° N 01:41:23 62° N
Meteor 1-23 Rocket 4.2 01:38:00 10° NNW 01:43:39 68° W 01:43:52 67° WSW
Cosmos 1140 Rocket 4.0 01:39:56 10° N 01:45:00 51° ENE 01:45:43 48° E
Cosmos 1455 Rocket 4.3 01:52:30 33° ENE 01:52:30 33° ENE 01:55:58 10° NNE
Cosmos 1656 3.9 01:53:47 53° W 01:54:30 58° WNW 01:59:58 10° NNE
Cosmos 2263 Rocket 4.3 01:50:41 10° N 01:55:03 22° NE 01:59:26 10° E
Meteor 2-4 Rocket 4.4 01:50:30 10° NNW 01:55:18 37° W 01:55:18 37° W
Cosmos 2369 4.5 01:55:17 37° W 01:56:41 44° WNW 02:02:10 10° NNE
Meteor 1-5 Rocket 4.5 01:59:38 53° WSW 02:00:15 56° WNW 02:05:44 10° N
CZ-4C R/B 3.0 01:55:15 10° NW 02:02:23 75° NE 02:06:47 29° SE
CZ-4B R/B 3.2 02:04:25 31° NNW 02:04:25 31° NNW 02:06:24 10° NNW
Cosmos 2056 Rocket 4.1 02:02:35 44° W 02:03:04 45° WNW 02:08:00 10° N
Cosmos 1980 Rocket 2.1 02:03:43 70° SE 02:04:00 71° ESE 02:09:37 10° NNE
Cosmos 1954 Rocket 3.8 02:01:54 10° NNW 02:07:11 86° WSW 02:07:16 85° SW
Cosmos 1743 4.3 02:08:03 29° ENE 02:08:03 29° ENE 02:10:47 10° NNE
Cosmos 1238 Rocket 3.5 02:03:45 10° N 02:08:53 82° W 02:09:20 75° SSW
PSLV R/B 4.1 02:06:40 10° NNE 02:11:17 59° E 02:11:17 59° E
Cosmos 1025 Rocket 4.2 02:10:53 10° NNW 02:13:59 33° WNW 02:13:59 33° WNW
Cosmos 1500 4.1 02:19:20 46° NNW 02:19:20 46° NNW 02:22:10 10° N
Cosmos 1975 3.3 02:23:32 60° N 02:23:32 60° N 02:26:56 10° N
Cosmos 1437 Rocket 4.2 02:27:14 31° E 02:27:14 31° E 02:30:45 10° NNE
H-2A R/B 2.8 02:25:08 10° N 02:28:35 61° N 02:28:35 61° N
Cosmos 1452 Rocket 3.6 02:28:49 61° W 02:29:20 65° WNW 02:34:37 10° NNE
NOSS 3-1 (C) 3.2 02:29:04 63° S 02:29:59 77° ESE 02:36:28 10° NE
Cosmos 2297 Rocket 3.9 02:27:01 10° NW 02:30:03 19° W 02:30:03 19° W
USA 81 4.1 02:25:55 10° N 02:31:12 71° E 02:32:00 60° SE
Cosmos 1697 Rocket 3.4 02:30:56 37° W 02:32:17 43° WNW 02:37:39 10° NNE
Cosmos 1850 Rocket 3.9 02:34:27 10° NNW 02:39:51 88° ENE 02:40:44 64° SSE
Nadezhda 1 Rocket 3.9 02:34:16 10° NNW 02:40:20 69° W 02:41:30 56° SSW
Cosmos 1892 Rocket 4.3 02:36:11 10° NNW 02:39:53 43° WNW 02:39:53 43° WNW
Cosmos 1709 Rocket 4.1 02:42:48 46° SSE 02:44:32 67° E 02:50:35 10° NNE
SL-16 R/B 2.5 02:44:16 47° SE 02:45:18 54° ESE 02:50:49 10° NNE
Helios 1A Rocket 3.2 02:43:18 10° NNE 02:47:07 59° E 02:47:07 59° E
BREEZE M DEB (TANK) 3.3 02:48:29 52° WSW 02:49:46 87° SSE 02:52:48 10° ENE
ISS -1.6 02:48:23 10° NW 02:51:14 27° NNE 02:54:05 10° ENE
Cosmos 614 Rocket 4.3 02:48:13 10° NNW 02:52:46 46° W 02:52:46 46° W
Cosmos 2322 Rocket 2.3 02:53:12 51° SSE 02:54:24 65° ESE 03:00:04 10° NNE
Cosmos 1420 Rocket 4.3 02:58:32 46° W 02:59:26 51° WNW 03:04:31 10° NNE
SL-16 R/B 3.4 02:55:29 14° SE 03:00:34 48° ENE 03:06:33 10° N
Cosmos 1626 Rocket 3.4 02:57:14 10° N 03:01:39 78° W 03:01:42 78° WSW
USA 234 3.2 02:59:05 10° NE 03:05:40 90° SE 03:08:23 39° SW
Cosmos 1666 2.9 03:07:17 62° NW 03:07:17 62° NW 03:10:48 10° N
Cosmos 839 Rocket 4.5 03:08:23 33° WSW 03:10:55 52° NW 03:16:59 10° NNE
Resurs 1-4 Rocket 2.9 03:13:01 10° NNE 03:18:03 43° E 03:20:23 27° SSE
IRS-1C 4.3 03:12:59 10° NNE 03:18:19 63° ESE 03:20:14 39° SSE
Cosmos 2181 Rocket 4.0 03:12:55 10° N 03:19:19 80° W 03:22:06 37° S
Cosmos 1461 3.7 03:15:59 10° NW 03:19:14 39° W 03:19:14 39° W
Cosmos 1825 Rocket 4.1 03:17:22 10° N 03:21:43 54° E 03:23:29 32° SE
Cosmos 1741 Rocket 4.5 03:17:23 10° NW 03:22:15 40° WSW 03:22:27 40° WSW
ARIANE 5 R/B 3.5 03:19:17 10° NNE 03:24:07 41° E 03:26:38 25° SSE
BREEZE-M DEB (TANK) 3.6 03:20:47 10° W 03:27:31 42° NNW 03:30:14 10° NE
ADEOS Rocket 2.9 03:22:47 10° NNE 03:29:10 85° WNW 03:31:34 38° SSW
ATLAS 2AS CENTAUR R/B 3.9 03:26:52 21° SSE 03:31:17 39° ESE 03:38:37 10° NE
BREEZE M DEB (TANK) 2.8 03:32:31 46° ENE 03:32:31 46° ENE 03:35:07 10° ESE
SL-08 ROCKET BODY 4.4 03:31:22 35° S 03:34:07 89° WNW 03:40:13 10° N
NPP 3.7 03:29:01 10° N 03:34:23 70° WNW 03:36:18 40° SW
Lacrosse 5 rocket 4.4 03:32:22 10° NNW 03:34:52 16° NNE 03:37:27 10° ENE
Cosmos 1842 3.6 03:31:48 10° NNW 03:35:25 47° W 03:35:25 47° W
NOSS 3-1 (A) 3.8 03:33:28 31° WSW 03:36:14 56° NW 03:42:45 10° NNE
Cosmos 1331 Rocket 3.9 03:36:02 43° SSW 03:37:45 87° WNW 03:42:57 10° NNE
CZ-2D R/B 2.4 03:32:32 10° NNE 03:38:00 64° E 03:40:47 29° S
SL-08 R/B 3.4 03:37:31 47° SW 03:38:21 54° W 03:42:53 10° NNW
COBE Rocket 4.1 03:33:42 10° N 03:38:49 63° WNW 03:40:35 40° SW
Cosmos 2228 4.4 03:36:56 19° SE 03:39:16 33° E 03:43:07 10° NNE
Cosmos 2263 Rocket 2.1 03:33:51 10° NNW 03:39:31 67° WSW 03:42:30 28° S
Cosmos 220 Rocket 3.9 03:37:15 10° NNW 03:41:25 61° WSW 03:42:06 52° SSW
IRS-P3 4.4 03:38:09 10° N 03:43:23 54° WNW 03:45:21 35° SW
NOSS 2-3 (E) 4.5 03:41:49 32° S 03:43:34 47° ESE 03:48:44 10° NE
Cosmos 2360 Rocket 2.3 03:44:09 32° S 03:46:48 69° ESE 03:52:25 10° NNE
CBERS-1 4.3 03:42:36 10° N 03:47:38 55° WNW 03:49:31 35° SW
Cosmos 1980 Rocket 4.0 03:45:28 14° W 03:48:34 21° NW 03:52:44 10° N
Cosmos 44 3.0 03:44:22 10° NNW 03:48:44 87° NE 03:53:15 10° SSE
COSMOS 2428 4.0 03:45:35 16° SSE 03:49:27 33° ESE 03:54:31 10° NE
DELTA 2 R/B (1) 4.2 03:49:16 32° S 03:50:36 37° SSE 03:55:42 10° E
CZ-4C R/B 3.8 03:44:36 10° WNW 03:50:36 28° WSW 03:51:52 26° SW
Cosmos 2219 Rocket 4.2 03:47:37 10° SE 03:51:38 20° E 03:55:40 10° NE
Cosmos 2074 Rocket 4.0 03:49:39 28° S 03:53:11 85° W 03:59:32 10° N
OAO 3 Rocket 4.3 03:54:41 26° S 03:54:44 26° S 03:58:48 10° ESE
Cosmos 1486 Rocket 4.0 03:50:49 10° NNW 03:56:10 86° ENE 04:01:26 10° SSE
AQUA 4.3 03:52:22 10° N 03:56:57 48° WNW 03:58:41 33° WSW
Cosmos 2058 Rocket 3.4 03:56:09 25° S 03:58:38 64° E 04:03:06 10° NNE
Cosmos 1953 Rocket 3.5 03:54:51 10° N 03:59:20 82° W 04:01:45 27° S
Cosmos 1844 Rocket 3.9 03:54:42 10° NNW 04:00:06 43° ENE 04:05:29 10° SE
CBERS 1 LM4 rocket 4.3 03:58:23 10° NNE 04:03:10 82° WNW 04:05:37 30° SSW
ATLAS 3B R/B 3.7 03:56:52 10° NNW 04:03:26 48° NE 04:09:42 10° ESE
Cosmos 1437 Rocket 4.4 04:02:41 20° W 04:03:26 21° WNW 04:06:38 10° NNW
Uosat 12 SS-18 rocket 4.4 04:02:03 33° SSW 04:04:16 89° ESE 04:10:02 10° NE
Centaur D AC-29 3.5 04:03:54 14° SSE 04:04:50 14° SSE 04:08:54 10° SE
MOS 1 Rocket 3.2 04:00:56 10° NNE 04:05:31 74° ESE 04:07:59 26° S
MOZ.5/SAFIR/RUBIN 5/SL-8 4.0 04:01:10 11° SSE 04:05:39 70° ENE 04:10:17 10° N
Meteor 2-5 Rocket 3.9 04:02:21 10° N 04:08:00 74° ENE 04:13:45 10° SSE
Cosmos 2333 Rocket 4.2 04:04:22 10° SSE 04:08:41 23° E 04:13:00 10° NE
BREEZE M DEB (TANK) 3.7 04:07:50 13° NW 04:09:33 28° N 04:13:06 10° ENE
Cosmos 2322 3.7 04:06:53 27° SSW 04:10:08 87° ESE 04:15:50 10° NNE
Cosmos 2154 Rocket 4.2 04:07:32 15° S 04:12:49 73° E 04:19:06 10° NNE
Okean O Rocket 4.3 04:10:56 10° ENE 04:13:22 14° E 04:15:47 10° ESE
SeaSat 1 4.4 04:10:52 10° ESE 04:15:13 32° NE 04:19:35 10° N
Meteor 1-24 Rocket 4.4 04:11:17 10° N 04:16:32 52° ENE 04:21:56 10° SSE
NOSS 2-3 (C) 3.9 04:14:04 28° SSW 04:16:40 88° ESE 04:22:14 10° NE
SL-8 R/B 3.8 04:14:20 29° SW 04:16:43 66° SSE 04:21:32 10° ENE
Cosmos 1610 Rocket 4.4 04:12:36 20° S 04:16:59 82° W 04:23:09 10° N
Iridium 4 Rocket 3.8 04:18:26 21° SSW 04:22:26 64° W 04:28:03 10° N
Cosmos 1707 2.7 04:18:50 10° NNW 04:22:40 66° W 04:25:01 22° S
Cosmos 1726 Rocket 3.9 04:21:10 27° SW 04:23:14 50° WNW 04:27:33 10° N
UNK 4.5 04:22:03 26° SW 04:23:49 34° W 04:28:03 10° NNW
Cosmos 2278 Rocket 4.4 04:19:03 10° N 04:23:56 29° NE 04:28:48 10° ESE
Cosmos 1766 4.3 04:22:42 11° SSE 04:26:15 44° E 04:30:01 10° NNE
ADEOS 3.7 04:21:42 10° N 04:26:51 61° WNW 04:30:19 21° SW
ISS -4.0 04:24:41 10° WNW 04:27:56 66° SW 04:31:09 10° SE
SL-16 R/B 3.6 04:26:08 15° W 04:29:44 26° NW 04:34:27 10° N
Cosmos 44 Rocket 3.8 04:25:46 10° NW 04:30:04 35° WSW 04:34:04 12° S
Cosmos 1607 4.0 04:24:25 10° NW 04:30:54 82° WSW 04:37:21 10° SSE
Meteor 1-4 Rocket 3.7 04:30:12 23° WSW 04:31:15 26° WNW 04:34:20 10° NNW
Cosmos 2341 Rocket 4.2 04:25:38 10° S 04:31:59 74° E 04:38:22 10° NNE
Cosmos 1378 3.1 04:29:18 10° NNW 04:32:59 61° W 04:35:39 17° S
Cosmos 1302 Rocket 4.4 04:30:38 21° SW 04:33:56 50° WNW 04:39:06 10° N
IRS-1D 4.1 04:30:25 10° N 04:35:01 40° WNW 04:38:05 19° SW
USA 161 2.5 04:33:31 10° SSE 04:36:27 49° ENE 04:39:19 10° N
H-2A R/B 4.2 04:13:08 10° W 04:36:33 35° SW 04:41:58 10° SSE
Cosmos 2322 Rocket 3.8 04:35:01 12° W 04:38:57 23° NW 04:43:24 10° N
Cosmos 2333 4.4 04:34:25 15° SSW 04:39:12 75° ESE 04:44:54 10° NNE
CZ-2D R/B 3.5 04:36:56 10° N 04:41:16 71° WNW 04:44:34 16° SSW
SL-16 R/B 3.4 04:40:35 17° SW 04:44:22 30° W 04:49:46 10° NW
Cosmos 1844 3.9 04:42:19 10° NNW 04:47:57 77° ENE 04:53:36 10° SSE
USA 234 4.4 04:42:19 10° NE 04:48:15 38° NNW 04:54:10 10° W
Cosmos 1503 Rocket 4.0 04:43:02 10° NNW 04:48:17 65° WSW 04:53:33 10° S
NOSS 2-3 (D) 4.4 04:51:31 15° WSW 04:55:19 51° NW 05:00:51 10° NNE
Cosmos 1340 Rocket 2.9 04:52:21 10° NNW 04:56:16 56° W 05:00:07 10° S
ADEOS II 2.6 04:52:19 10° NNE 04:57:32 60° E 05:02:42 10° S
Resurs 1-4 Rocket 3.3 04:53:19 10° N 04:57:39 27° WNW 05:01:28 12° WSW
Cosmos 1356 Rocket 3.9 04:53:49 10° N 04:57:50 59° ENE 05:01:46 10° SSE
Cosmos 1805 3.6 04:58:02 10° S 05:01:54 66° E 05:05:48 10° NNE
ARIANE 5 R/B 3.8 04:58:48 10° N 05:03:02 27° WNW 05:06:58 11° WSW
Meteor 1-22 Rocket 4.3 04:57:44 10° SSW 05:03:24 73° W 05:09:22 10° N
PSLV R/B 4.5 05:02:13 10° NNE 05:06:30 50° E 05:10:44 10° S
BREEZE-M DEB (TANK) 2.4 05:05:01 14° WSW 05:07:29 72° SSE 05:13:25 10° ENE
BREEZE-M DEB (TANK) 4.3 05:05:30 10° WNW 05:09:55 75° NNE 05:27:42 10° ESE
Cosmos 1992 Rocket 4.1 05:07:23 10° SSW 05:12:34 68° WNW 05:17:46 10° NNE
UNKNOWN OBJECT B 4.1 05:11:17 10° NNW 05:14:24 24° WNW 05:17:31 10° WSW
Cosmos 1271 Rocket 3.9 05:11:22 12° SW 05:14:38 29° WNW 05:18:10 10° N
Lacrosse 5 rocket 2.1 05:10:49 10° NW 05:14:45 57° NE 05:18:57 10° ESE
Cosmos 1184 Rocket 4.4 05:13:03 10° NW 05:15:25 18° W 05:17:41 10° SW
CZ-2D R/B 3.8 05:13:42 10° NNW 05:17:33 20° WNW 05:21:25 10° WSW
Cosmos 1758 3.4 05:16:59 10° S 05:20:59 82° E 05:25:03 10° N
ATLAS 2AS CENTAUR R/B 3.4 05:14:23 10° SW 05:22:04 58° NW 05:30:08 10° NNE
Cosmos 389 Rocket 3.4 05:21:31 10° SW 05:24:43 31° WNW 05:27:59 10° N
CZ-4B R/B 2.8 05:22:54 10° NNE 05:26:45 86° W 05:30:44 10° SSW
Cosmos 1809 Rocket 4.5 05:20:39 10° SSW 05:26:45 74° W 05:32:56 10° N
Cosmos 1953 2.4 05:24:33 10° S 05:28:36 86° E 05:32:38 10° N
Abrixas rocket 4.3 05:26:18 10° S 05:28:46 20° SE 05:31:15 10° E
In-Cosmos 22 4.4 05:24:22 10° NNW 05:29:31 47° W 05:34:32 10° SSW
Lacrosse 5 3.8 05:27:12 10° S 05:31:10 23° ESE 05:35:09 10° ENE
Cosmos 2360 Rocket 3.8 05:27:06 10° W 05:31:20 21° NW 05:35:36 10° N
COSMOS 2428 3.5 05:28:13 10° SW 05:33:35 40° WNW 05:39:00 10° NNE
PAYLOAD B 4.4 05:29:22 10° NNE 05:35:01 86° ESE 05:40:38 10° SSW
Cosmos 2219 Rocket 2.4 05:29:27 10° SW 05:35:04 61° WNW 05:40:43 10° NNE
Cosmos 1980 3.8 05:30:24 10° SSW 05:36:04 85° ESE 05:41:48 10° NNE
DELTA 2 R/B (1) 3.8 05:31:09 10° WSW 05:36:37 59° S 05:42:05 10° E
Cosmos 2237 Rocket 2.3 05:32:20 10° SSW 05:37:58 82° ESE 05:43:37 10° NNE
